Location: Stara Lesna
(49.1528°N, 20.2911°E)
Time: 15:11:21
(UTC+02:00)

Unknown - Pass Details

Date: 21 September 2019
Orbit: 549 x 551 km, 53.0° (Epoch: 17 October)

Event Time Altitude Azimuth Distance (km) Brightness Sun altitude
Exits shadow 04:18:43 62° 254° (WSW) 622 3.5 -20.4°
Maximum altitude 04:19:23 86° 336° (NNW) 556 3.5 -20.3°
Drops below altitude 10° 04:23:33 10° 66° (ENE) 1,827 7.5 -19.7°
Sets 04:25:47 0° 67° (ENE) 2,724 8.8 -19.3°
